Miscellaneous Local Product
Issued by NWS Hastings, NE

Home | Current Version | Previous Version | Text Only | Print | Product List | Glossary On
Versions: 1 2 3 4 5 6 7 8 9 10 11 12 13 14 15 16 17 18 19 20 21 22 23 24 25 26 27 28 29 30 31 32 33 34 35 36 37 38 39 40 41 42 43 44 45 46 47 48 49 50
000
AXUS43 KGID 011402
MISGRI

GID CWA HOURLY WEATHER ROUNDUP
NATIONAL WEATHER SERVICE HASTINGS NE
900 AM CDT MON SEP 01 2014

NOTE: "FAIR" INDICATES FEW OR NO CLOUDS BELOW 12,000 FEET WITH NO
SIGNIFICANT WEATHER AND/OR OBSTRUCTIONS TO VISIBILITY.

...SOUTH CENTRAL NEBRASKA...

CITY           SKY/WX    TMP DP  RH WIND       PRES   REMARKS
GRAND ISLAND   SUNNY     62  56  80 W10       29.90R
HASTINGS       MOSUNNY   62  54  74 NW12      29.90R
KEARNEY        MOSUNNY   59  54  82 W10       29.93S
ORD            SUNNY     60  55  83 NW8       29.88S
YORK           MOSUNNY   61 N/A N/A NW7       29.88R
AURORA         MOSUNNY   61  58  91 NW7       29.89R
LEXINGTON      SUNNY     57  55  91 W3        29.94F
HOLDREGE       MOSUNNY   58  54  87 CALM      29.93S
HEBRON         MOSUNNY   63  57  80 NW6       29.91R

...NEBRASKA PANHANDLE...

CITY           SKY/WX    TMP DP  RH WIND       PRES   REMARKS
CHADRON        SUNNY     53  50  89 W7        29.96R
ALLIANCE       CLOUDY    54  50  86 W7        29.99S
SCOTTSBLUFF    MOSUNNY   53  50  89 CALM      30.01S
SIDNEY         MOSUNNY   56  48  74 W8        30.04R

...WESTERN AND NORTH CENTRAL NEBRASKA...

CITY           SKY/WX    TMP DP  RH WIND       PRES   REMARKS
VALENTINE      PTSUNNY   57  54  89 W9        29.92R
AINSWORTH      MOSUNNY   58  53  84 W8        29.91S
ONEILL         SUNNY     60  56  88 W8        29.88R
BROKEN BOW     SUNNY     62  53  72 VRB3      29.92R
IMPERIAL       PTSUNNY   56  50  80 W6        30.00R
NORTH PLATTE   SUNNY     57  52  83 W6        29.96S
MCCOOK         MOSUNNY   59  54  83 SW6       29.97R

...EASTERN NEBRASKA...

CITY           SKY/WX    TMP DP  RH WIND       PRES   REMARKS
NORFOLK        SUNNY     62  58  86 W9        29.84R
SO SIOUX CITY  CLOUDY    65  62  90 W3        29.80R
TEKAMAH        SUNNY     67  62  84 W10       29.81R
ALBION         SUNNY     61  56  83 NW8       29.86S
OMAHA EPPLEY   MOSUNNY   69  61  75 NW9       29.82R
OFFUTT AFB     SUNNY     69  67  94 NW9       29.82R
MILLARD        MOSUNNY   67  61  83 W7        29.83R
LINCOLN        SUNNY     67  61  81 W6        29.87R
NEBRASKA CITY  MOSUNNY   67  65  91 W13       29.84R
BEATRICE       SUNNY     66  61  82 W8        29.87R
FALLS CITY     PTSUNNY   70  65  84 W10       29.84R

...NORTHERN KANSAS...

CITY           SKY/WX    TMP DP  RH WIND       PRES   REMARKS
GOODLAND       PTSUNNY   57  53  86 NW8       30.03R
HILL CITY      MOSUNNY   62  55  77 NW6       29.96R
NORTON         LGT RAIN  59  50  72 W7        29.95S
PHILLIPSBURG   SUNNY     63  55  77 NW9       29.95R
SMITH CENTER   SUNNY     61  57  88 NW9       29.92S
HAYS           MOSUNNY   63  54  72 N6        29.95R
RUSSELL        SUNNY     65  59  81 NW12      29.92R
CONCORDIA      SUNNY     67  63  87 NW8       29.90R
SALINA         MOSUNNY   69  64  84 SW9       29.89R
TOPEKA         PTSUNNY   69  66  90 S8        29.86S



USA.gov is the U.S. government's official web portal to all federal, state and local government web resources and services.